Location: Dampvalley
(47.9094°N, 6.1967°E)
Time: 09:24:16
(UTC+00:00)

AO-109 - Pass Details

Date: 08 December 2021
Orbit: 478 x 516 km, 60.7° (Epoch: 21 January)

Event Time Altitude Azimuth Distance (km) Brightness Sun altitude
Exits shadow 04:57:03 16° 192° (SSW) 1,300 ? -21.6°
Drops below altitude 10° 04:58:09 10° 180° (S) 1,647 ? -21.4°
Sets 05:00:32 0° 166° (SSE) 2,523 ? -21.0°
